AB5KT-1 Weather Reports


Display with metric or nautical units.
time (UTC)temp
F
wind
direction
speed
MPH
gust
MPH
rain 1hr
in
rain 24hr
in
rain mn
in
humidity
%
barometer
mb
20260903183751 96 129 1.0 8.0 0.00 0.00 0.00 50 1013.2
20260903183746 96 182 4.0 12.0 0.00 0.00 0.00 47 1013.1
20260903182744 95 208 2.0 7.0 0.00 0.00 0.00 51 1013.3
20260903182245 96 161 4.0 12.0 0.00 0.00 0.00 50 1013.5
20260903181742 96 196 3.0 12.0 0.00 0.00 0.00 48 1013.5
20260903181240 96 180 2.0 6.0 0.00 0.00 0.00 50 1013.5
20260903180740 95 128 3.0 7.0 0.00 0.00 0.00 51 1013.6
20260903180241 95 142 3.0 7.0 0.00 0.00 0.00 50 1013.7
20260903175739 94 130 3.0 7.0 0.00 0.00 0.00 54 1013.7
20260903175238 94 186 3.0 7.0 0.00 0.00 0.00 53 1013.8
20260903174739 94 115 3.0 8.0 0.00 0.00 0.00 52 1013.9
20260903174241 94 118 2.0 8.0 0.00 0.00 0.00 53 1014.0
20260903174237 93 128 2.0 7.0 0.00 0.00 0.00 57 1014.1
20260903173237 93 61 2.0 8.0 0.00 0.00 0.00 54 1014.0
20260903173233 92 151 3.0 8.0 0.00 0.00 0.00 57 1014.2
20260903172836 92 146 3.0 8.0 0.00 0.00 0.00 59 1014.2
20260903172337 92 161 3.0 8.0 0.00 0.00 0.00 59 1014.3
20260903171836 92 84 2.0 8.0 0.00 0.00 0.00 59 1014.3
20260903170735 91 117 2.0 7.0 0.00 0.00 0.00 59 1014.5
20260903170731 91 216 2.0 7.0 0.00 0.00 0.00 61 1014.4
20260903170334 91 90 2.0 7.0 0.00 0.00 0.00 62 1014.4
20260903165231 91 167 2.0 7.0 0.00 0.00 0.00 61 1014.5
20260903164730 91 103 2.0 7.0 0.00 0.00 0.00 61 1014.5
20260903164231 90 102 2.0 7.0 0.00 0.00 0.00 64 1014.6
20260903163735 89 130 2.0 8.0 0.00 0.00 0.00 66 1014.7
20260903163730 90 115 2.0 8.0 0.00 0.00 0.00 65 1014.6
20260903162731 89 120 2.0 8.0 0.00 0.00 0.00 66 1014.8
20260903162230 89 138 2.0 8.0 0.00 0.00 0.00 67 1014.7
20260903161730 88 179 3.0 10.0 0.00 0.00 0.00 67 1014.7
20260903161231 87 172 4.0 10.0 0.00 0.00 0.00 68 1014.7
20260903160734 87 207 2.0 8.0 0.00 0.00 0.00 70 1014.7
20260903160730 87 134 2.0 8.0 0.00 0.00 0.00 70 1014.6
20260903155730 87 172 3.0 8.0 0.00 0.00 0.00 70 1014.7
20260903155230 86 134 4.0 7.0 0.00 0.00 0.00 71 1014.7
20260903154731 85 130 4.0 8.0 0.00 0.00 0.00 72 1014.7
20260903154230 85 166 3.0 8.0 0.00 0.00 0.00 73 1014.7
20260903153730 85 132 3.0 8.0 0.00 0.00 0.00 73 1014.6
20260903153231 84 217 3.0 8.0 0.00 0.00 0.00 74 1014.7
20260903152730 85 203 3.0 8.0 0.00 0.00 0.00 75 1014.7
20260903152230 84 159 3.0 8.0 0.00 0.00 0.00 75 1014.8
20260903151730 84 115 3.0 7.0 0.00 0.00 0.00 75 1014.8
20260903151231 84 155 3.0 8.0 0.00 0.00 0.00 75 1014.9
20260903150731 83 130 3.0 8.0 0.00 0.00 0.00 76 1014.8
20260903150230 83 184 4.0 10.0 0.00 0.00 0.00 76 1014.8
20260903145731 83 161 3.0 10.0 0.00 0.00 0.00 77 1014.8
20260903145230 82 163 2.0 7.0 0.00 0.00 0.00 78 1014.8
20260903144730 82 210 3.0 7.0 0.00 0.00 0.00 78 1014.8
20260903144230 82 161 3.0 7.0 0.00 0.00 0.00 78 1014.8
20260903143734 82 138 2.0 8.0 0.00 0.00 0.00 79 1014.8
20260903143730 82 203 2.0 7.0 0.00 0.00 0.00 78 1014.8
20260903143335 82 143 2.0 7.0 0.00 0.00 0.00 79 1014.8
20260903142833 82 155 3.0 8.0 0.00 0.00 0.00 79 1014.8
20260903141833 81 161 1.0 5.0 0.00 0.00 0.00 80 1014.8
20260903141733 82 168 2.0 6.0 0.00 0.00 0.00 79 1014.8
20260903141729 82 186 2.0 7.0 0.00 0.00 0.00 79 1014.8
20260903140832 81 157 1.0 4.0 0.00 0.00 0.00 81 1014.9
20260903135728 81 161 1.0 5.0 0.00 0.00 0.00 82 1014.9
20260903135229 80 161 2.0 5.0 0.00 0.00 0.00 82 1015.0
20260903134729 80 125 2.0 5.0 0.00 0.00 0.00 82 1014.9
20260903134227 80 136 2.0 5.0 0.00 0.00 0.00 82 1014.9
20260903133727 80 131 1.0 6.0 0.00 0.00 0.00 82 1014.9
20260903133225 80 128 1.0 6.0 0.00 0.00 0.00 82 1015.0
20260903132725 80 134 1.0 5.0 0.00 0.00 0.00 83 1014.9
20260903132225 80 132 1.0 5.0 0.00 0.00 0.00 83 1015.0
20260903131724 80 154 1.0 5.0 0.00 0.00 0.00 83 1015.0
20260903131224 79 163 1.0 5.0 0.00 0.00 0.00 83 1014.8
20260903130725 79 152 0.0 4.0 0.00 0.00 0.00 84 1014.9
20260903130225 79 113 0.0 2.0 0.00 0.00 0.00 84 1014.9
20260903125724 79 119 1.0 5.0 0.00 0.00 0.00 84 1014.9
20260903125225 79 139 1.0 5.0 0.00 0.00 0.00 84 1014.8
20260903124726 79 164 1.0 4.0 0.00 0.00 0.00 84 1014.7
20260903124227 79 162 1.0 4.0 0.00 0.00 0.00 84 1014.6
20260903124223 79 138 2.0 5.0 0.00 0.00 0.00 84 1014.6
20260903123222 79 165 2.0 5.0 0.00 0.00 0.00 84 1014.6
20260903122722 79 167 1.0 5.0 0.00 0.00 0.00 84 1014.6
20260903122223 79 155 1.0 4.0 0.00 0.00 0.00 84 1014.7
20260903121723 79 128 0.0 4.0 0.00 0.00 0.00 84 1014.6
20260903121223 79 124 1.0 4.0 0.00 0.00 0.00 84 1014.5
20260903120723 79 163 1.0 4.0 0.00 0.00 0.00 84 1014.5
20260903120223 79 161 1.0 7.0 0.00 0.00 0.00 84 1014.4
20260903115722 79 143 2.0 7.0 0.00 0.00 0.00 84 1014.4
20260903115222 79 184 2.0 5.0 0.00 0.00 0.00 83 1014.4
20260903114723 79 198 2.0 6.0 0.00 0.00 0.00 83 1014.3
20260903114223 79 169 2.0 6.0 0.00 0.00 0.00 83 1014.3
20260903113721 79 144 2.0 5.0 0.00 0.00 0.00 83 1014.3
20260903113221 79 133 3.0 6.0 0.00 0.00 0.00 83 1014.3
20260903112718 79 159 3.0 6.0 0.00 0.00 0.00 83 1014.3
20260903112216 79 160 2.0 5.0 0.00 0.00 0.00 83 1014.3
20260903111714 79 177 1.0 5.0 0.00 0.00 0.00 83 1014.4
20260903111215 79 201 1.0 4.0 0.00 0.00 0.00 83 1014.4
20260903110713 79 147 1.0 4.0 0.00 0.00 0.00 83 1014.4
20260903110213 79 167 1.0 4.0 0.00 0.00 0.00 83 1014.4
20260903105710 79 161 2.0 4.0 0.00 0.00 0.00 83 1014.5
20260903105211 79 163 2.0 6.0 0.00 0.00 0.00 83 1014.5
20260903104710 79 134 2.0 6.0 0.00 0.00 0.00 83 1014.4
20260903104209 79 151 2.0 6.0 0.00 0.00 0.00 83 1014.4
20260903103709 79 129 2.0 6.0 0.00 0.00 0.00 83 1014.4
20260903103208 80 141 2.0 6.0 0.00 0.00 0.00 83 1014.3
20260903102706 80 105 2.0 5.0 0.00 0.00 0.00 83 1014.3
20260903102205 80 111 2.0 6.0 0.00 0.00 0.00 83 1014.2
20260903101703 80 132 2.0 7.0 0.00 0.00 0.00 83 1014.3
20260903101202 80 142 1.0 7.0 0.00 0.00 0.00 83 1014.3
20260903100702 80 180 1.0 6.0 0.00 0.00 0.00 83 1014.3
20260903100203 80 149 2.0 6.0 0.00 0.00 0.00 83 1014.3
20260903095703 80 172 2.0 6.0 0.00 0.00 0.00 83 1014.3
20260903095202 80 160 2.0 6.0 0.00 0.00 0.00 83 1014.3
20260903094705 80 128 1.0 5.0 0.00 0.00 0.00 83 1014.3
20260903094701 80 165 1.0 5.0 0.00 0.00 0.00 83 1014.3
20260903093700 80 173 3.0 8.0 0.00 0.00 0.00 83 1014.2
20260903093159 80 165 3.0 9.0 0.00 0.00 0.00 82 1014.2
20260903092659 80 133 4.0 9.0 0.00 0.00 0.00 82 1014.2
20260903092159 80 171 4.0 9.0 0.00 0.00 0.00 82 1014.2
20260903091659 80 144 3.0 8.0 0.00 0.00 0.00 82 1014.2
20260903091159 80 184 3.0 7.0 0.00 0.00 0.00 82 1014.2
20260903090659 80 62 2.0 5.0 0.00 0.00 0.00 83 1014.2
20260903090149 80 150 1.0 5.0 0.00 0.00 0.00 82 1014.3
20260903085649 80 126 1.0 6.0 0.00 0.00 0.00 83 1014.3
20260903085149 80 172 2.0 6.0 0.00 0.00 0.00 83 1014.3
20260903084649 80 129 1.0 8.0 0.00 0.00 0.00 82 1014.2
20260903084153 80 130 2.0 8.0 0.00 0.00 0.00 82 1014.3
20260903084149 80 115 1.0 8.0 0.00 0.00 0.00 82 1014.2
20260903083148 80 126 2.0 5.0 0.00 0.00 0.00 82 1014.2
20260903082649 80 125 1.0 5.0 0.00 0.00 0.00 82 1014.3
20260903082153 80 135 2.0 7.0 0.00 0.00 0.00 81 1014.2
20260903082149 80 119 2.0 7.0 0.00 0.00 0.00 82 1014.2
20260903081149 80 170 1.0 5.0 0.00 0.00 0.00 81 1014.1
20260903080649 80 150 0.0 5.0 0.00 0.00 0.00 81 1014.2
20260903080148 80 124 0.0 2.0 0.00 0.00 0.00 80 1014.2
20260903075649 80 124 1.0 4.0 0.00 0.00 0.00 80 1014.1
20260903075149 80 155 1.0 4.0 0.00 0.00 0.00 80 1014.2
20260903074648 80 117 0.0 4.0 0.00 0.00 0.00 80 1014.1
20260903074153 80 165 1.0 6.0 0.00 0.00 0.00 79 1014.2
20260903074149 80 127 0.0 4.0 0.00 0.00 0.00 79 1014.1
20260903073149 80 118 1.0 6.0 0.00 0.00 0.00 79 1014.2
20260903072649 80 127 2.0 5.0 0.00 0.00 0.00 78 1014.3
20260903072147 81 102 2.0 6.0 0.00 0.00 0.00 78 1014.3
20260903071646 81 121 1.0 6.0 0.00 0.00 0.00 78 1014.4
20260903071151 81 126 1.0 6.0 0.00 0.00 0.00 77 1014.4
20260903071147 81 117 1.0 6.0 0.00 0.00 0.00 77 1014.4
20260903070146 81 114 1.0 5.0 0.00 0.00 0.00 76 1014.4
20260903065645 81 127 1.0 7.0 0.00 0.00 0.00 76 1014.4
20260903065149 82 111 2.0 7.0 0.00 0.00 0.00 75 1014.4
20260903065145 81 111 1.0 7.0 0.00 0.00 0.00 76 1014.4
20260903064749 82 126 3.0 7.0 0.00 0.00 0.00 75 1014.4
20260903063646 82 113 3.0 7.0 0.00 0.00 0.00 75 1014.4
20260903063143 82 124 2.0 6.0 0.00 0.00 0.00 75 1014.4
20260903062642 82 94 2.0 6.0 0.00 0.00 0.00 75 1014.4
20260903062143 82 118 2.0 7.0 0.00 0.00 0.00 75 1014.4
20260903061647 83 112 3.0 7.0 0.00 0.00 0.00 74 1014.2
20260903061643 82 114 2.0 7.0 0.00 0.00 0.00 74 1014.3
20260903060643 83 162 3.0 8.0 0.00 0.00 0.00 74 1014.2
20260903060143 83 118 2.0 8.0 0.00 0.00 0.00 74 1014.2
20260903055647 83 119 3.0 8.0 0.00 0.00 0.00 74 1014.2
20260903055643 83 126 2.0 8.0 0.00 0.00 0.00 74 1014.2
20260903054642 83 167 3.0 7.0 0.00 0.00 0.00 74 1014.3
20260903054141 83 162 3.0 8.0 0.00 0.00 0.00 73 1014.2
20260903053641 83 124 2.0 8.0 0.00 0.00 0.00 73 1014.2
20260903053140 83 148 2.0 6.0 0.00 0.00 0.00 73 1014.3
20260903052641 83 129 2.0 6.0 0.00 0.00 0.00 73 1014.3
20260903052141 84 158 2.0 7.0 0.00 0.00 0.00 72 1014.2
20260903051641 84 111 2.0 7.0 0.00 0.00 0.00 72 1014.2
20260903051139 84 103 2.0 6.0 0.00 0.00 0.00 71 1014.2
20260903050643 85 115 2.0 6.0 0.00 0.00 0.00 70 1014.1
20260903050639 84 115 2.0 6.0 0.00 0.00 0.00 71 1014.1
20260903050244 85 159 1.0 6.0 0.00 0.00 0.00 69 1014.1
20260903045139 85 105 2.0 8.0 0.00 0.00 0.00 69 1014.1
20260903044637 85 182 2.0 9.0 0.00 0.00 0.00 68 1014.1
20260903044137 85 150 3.0 11.0 0.00 0.00 0.00 68 1014.0
20260903043636 86 226 3.0 11.0 0.00 0.00 0.00 67 1013.9
20260903043136 86 109 3.0 15.0 0.00 0.00 0.00 66 1013.9
20260903042637 86 160 4.0 15.0 0.00 0.00 0.00 64 1013.9
20260903042136 86 146 5.0 11.0 0.00 0.00 0.00 63 1013.8
20260903041638 87 95 3.0 12.0 0.00 0.00 0.00 62 1013.9
20260903041634 87 98 4.0 12.0 0.00 0.00 0.00 63 1013.8
20260903040638 87 169 4.0 9.0 0.00 0.00 0.00 62 1013.7
20260903040634 87 76 3.0 9.0 0.00 0.00 0.00 62 1013.8
20260903035634 88 82 3.0 8.0 0.00 0.00 0.00 61 1013.6
20260903035134 88 110 1.0 7.0 0.00 0.00 0.00 60 1013.6
20260903034638 88 131 3.0 8.0 0.00 0.00 0.00 59 1013.3
20260903034634 88 144 2.0 8.0 0.00 0.00 0.00 60 1013.4
20260903033632 88 148 3.0 9.0 0.00 0.00 0.00 59 1013.3
20260903033132 89 45 2.0 9.0 0.00 0.00 0.00 58 1013.2
20260903032632 89 126 3.0 9.0 0.00 0.00 0.00 57 1013.0
20260903032132 89 129 3.0 9.0 0.00 0.00 0.00 57 1013.0
20260903031632 89 138 3.0 9.0 0.00 0.00 0.00 56 1012.9
20260903031130 89 128 3.0 10.0 0.00 0.00 0.00 55 1012.9
20260903030628 90 95 2.0 11.0 0.00 0.00 0.00 52 1012.9
20260903030128 90 107 1.0 11.0 0.00 0.00 0.00 49 1012.7
20260903025629 90 134 0.0 2.0 0.00 0.00 0.00 47 1012.5
20260903025128 90 133 0.0 1.0 0.00 0.00 0.00 47 1012.4
20260903024628 90 133 0.0 1.0 0.00 0.00 0.00 46 1012.4
20260903024129 90 133 0.0 1.0 0.00 0.00 0.00 47 1012.4
20260903023628 90 134 0.0 1.0 0.00 0.00 0.00 46 1012.3
20260903023128 90 133 0.0 1.0 0.00 0.00 0.00 46 1012.2
20260903022628 91 133 0.0 1.0 0.00 0.00 0.00 45 1012.2
20260903022132 91 133 0.0 1.0 0.00 0.00 0.00 44 1012.2
20260903022128 91 134 0.0 1.0 0.00 0.00 0.00 44 1012.2
20260903021129 91 133 0.0 1.0 0.00 0.00 0.00 43 1012.1
20260903020628 91 134 0.0 1.0 0.00 0.00 0.00 43 1012.0
20260903020132 92 134 0.0 1.0 0.00 0.00 0.00 42 1011.8
20260903020128 92 134 0.0 1.0 0.00 0.00 0.00 43 1012.0
20260903015128 92 134 0.0 1.0 0.00 0.00 0.00 41 1011.8
20260903014629 93 134 0.0 2.0 0.00 0.00 0.00 41 1011.6
20260903014126 93 134 0.0 2.0 0.00 0.00 0.00 40 1011.6
20260903013627 93 134 0.0 1.0 0.00 0.00 0.00 40 1011.6
20260903013126 94 134 0.0 1.0 0.00 0.00 0.00 40 1011.5
20260903012624 94 134 0.0 1.0 0.00 0.00 0.00 39 1011.5
20260903012125 94 134 0.0 1.0 0.00 0.00 0.00 39 1011.5
20260903011622 95 134 0.0 2.0 0.00 0.00 0.00 38 1011.5
20260903011123 95 133 0.0 2.0 0.00 0.00 0.00 38 1011.4
20260903010623 96 144 0.0 2.0 0.00 0.00 0.00 37 1011.4
20260903010127 96 141 0.0 4.0 0.00 0.00 0.00 36 1011.4
20260903010123 96 129 0.0 2.0 0.00 0.00 0.00 37 1011.4
20260903005124 97 141 1.0 4.0 0.00 0.00 0.00 36 1011.4
20260903004621 98 161 1.0 4.0 0.00 0.00 0.00 35 1011.4
20260903004123 99 154 1.0 5.0 0.00 0.00 0.00 35 1011.4
20260903004119 98 180 1.0 4.0 0.00 0.00 0.00 35 1011.4
20260903003119 99 150 2.0 5.0 0.00 0.00 0.00 34 1011.4
20260903002618 99 150 1.0 5.0 0.00 0.00 0.00 34 1011.5
20260903002118 99 156 1.0 4.0 0.00 0.00 0.00 35 1011.5
20260903001621 99 151 2.0 5.0 0.00 0.00 0.00 35 1011.5
20260903001119 99 159 3.0 7.0 0.00 0.00 0.00 35 1011.6
20260903000618 100 162 3.0 7.0 0.00 0.00 0.00 34 1011.5
20260903000118 100 168 1.0 7.0 0.00 0.00 0.00 33 1011.6
20260902235619 101 145 2.0 6.0 0.00 0.00 0.00 33 1011.6
20260902235118 101 230 2.0 6.0 0.00 0.00 0.00 32 1011.6
20260902234619 101 121 2.0 6.0 0.00 0.00 0.00 32 1011.6
20260902234118 101 194 4.0 7.0 0.00 0.00 0.00 32 1011.7
20260902233619 101 221 4.0 8.0 0.00 0.00 0.00 32 1011.7
20260902233119 102 166 3.0 8.0 0.00 0.00 0.00 32 1011.7
20260902232618 103 144 2.0 8.0 0.00 0.00 0.00 31 1011.8
20260902232118 103 142 1.0 6.0 0.00 0.00 0.00 31 1011.8
20260902231619 103 115 1.0 6.0 0.00 0.00 0.00 32 1011.7
20260902231118 103 130 1.0 6.0 0.00 0.00 0.00 32 1011.7
20260902230618 102 150 2.0 6.0 0.00 0.00 0.00 32 1011.8
20260902230119 103 145 1.0 6.0 0.00 0.00 0.00 31 1011.8
20260902225623 103 114 2.0 10.0 0.00 0.00 0.00 31 1011.8
20260902225619 103 151 1.0 5.0 0.00 0.00 0.00 31 1011.8
20260902225223 104 128 2.0 10.0 0.00 0.00 0.00 31 1011.8
20260902224118 103 115 1.0 7.0 0.00 0.00 0.00 31 1011.8
20260902223617 103 131 1.0 7.0 0.00 0.00 0.00 31 1011.8
20260902223117 104 119 1.0 7.0 0.00 0.00 0.00 30 1012.0
20260902222616 104 111 1.0 6.0 0.00 0.00 0.00 33 1012.0
20260902222116 103 109 1.0 5.0 0.00 0.00 0.00 31 1012.0
20260902221617 103 164 1.0 12.0 0.00 0.00 0.00 32 1012.1
20260902221121 102 44 2.0 8.0 0.00 0.00 0.00 32 1012.1
20260902221116 102 126 1.0 12.0 0.00 0.00 0.00 32 1012.1
20260902220117 101 346 4.0 10.0 0.00 0.00 0.00 32 1012.2
20260902215617 102 73 3.0 10.0 0.00 0.00 0.00 31 1012.2
20260902215120 102 122 4.0 11.0 0.00 0.00 0.00 34 1012.3
20260902215116 102 109 3.0 9.0 0.00 0.00 0.00 33 1012.3
20260902214116 102 45 3.0 11.0 0.00 0.00 0.00 32 1012.3
20260902213616 103 119 2.0 6.0 0.00 0.00 0.00 33 1012.3
20260902213117 103 98 4.0 10.0 0.00 0.00 0.00 35 1012.4
20260902212615 102 109 3.0 10.0 0.00 0.00 0.00 35 1012.3
20260902212114 103 193 1.0 8.0 0.00 0.00 0.00 34 1012.4
20260902211617 102 129 1.0 6.0 0.00 0.00 0.00 34 1012.5
20260902211613 103 118 1.0 6.0 0.00 0.00 0.00 35 1012.4
20260902210612 102 217 2.0 10.0 0.00 0.00 0.00 33 1012.6
20260902210112 103 130 2.0 10.0 0.00 0.00 0.00 34 1012.6
20260902205613 101 112 3.0 7.0 0.00 0.00 0.00 35 1012.7
20260902205112 102 169 3.0 8.0 0.00 0.00 0.00 35 1012.8
20260902204610 101 135 3.0 8.0 0.00 0.00 0.00 34 1012.9
20260902204111 101 171 3.0 8.0 0.00 0.00 0.00 36 1012.9
20260902203609 102 113 2.0 8.0 0.00 0.00 0.00 34 1013.0
20260902203108 102 126 2.0 9.0 0.00 0.00 0.00 34 1013.0
20260902202606 101 121 2.0 9.0 0.00 0.00 0.00 34 1013.2
20260902202111 103 126 1.0 5.0 0.00 0.00 0.00 35 1013.3
20260902202107 102 185 1.0 8.0 0.00 0.00 0.00 34 1013.3
20260902201106 102 134 2.0 6.0 0.00 0.00 0.00 36 1013.4
20260902200607 101 128 2.0 6.0 0.00 0.00 0.00 38 1013.5
20260902200208 100 164 2.0 8.0 0.00 0.00 0.00 39 1013.7
20260902200108 100 179 3.0 8.0 0.00 0.00 0.00 39 1013.8
20260902200104 100 125 1.0 7.0 0.00 0.00 0.00 38 1013.6
20260902194600 100 83 2.0 6.0 0.00 0.00 0.00 36 1013.8
20260902194103 101 244 2.0 8.0 0.00 0.00 0.00 38 1014.1
20260902194059 100 91 2.0 8.0 0.00 0.00 0.00 39 1014.0
20260902193058 100 142 2.0 7.0 0.00 0.00 0.00 39 1014.1
20260902192559 100 164 2.0 7.0 0.00 0.00 0.00 40 1014.1
20260902192059 99 166 2.0 7.0 0.00 0.00 0.00 41 1014.2
20260902191558 99 112 1.0 5.0 0.00 0.00 0.00 44 1014.3
20260902191059 98 128 2.0 7.0 0.00 0.00 0.00 45 1014.4
20260902190557 98 204 3.0 7.0 0.00 0.00 0.00 44 1014.5
20260902190054 98 167 3.0 7.0 0.00 0.00 0.00 43 1014.6
20260902185555 98 123 2.0 7.0 0.00 0.00 0.00 44 1014.6
20260902185059 98 232 3.0 8.0 0.00 0.00 0.00 45 1014.8
20260902185055 98 115 2.0 7.0 0.00 0.00 0.00 44 1014.7